| time (UTC) | temp F | wind direction | speed MPH | gust MPH | rain 1hr in | rain 24hr in | rain mn in | humidity % | barometer mb |
| 20260509222205 | 62 | 238 | 13.0 | 23.0 | 0.00 | 0.02 | 0.00 | 82 | 1004.5 |
| 20260509221704 | 63 | 258 | 10.0 | 18.0 | 0.00 | 0.03 | 0.00 | 84 | 1004.4 |
| 20260509220704 | 61 | 268 | 9.0 | 20.0 | 0.00 | 0.03 | 0.00 | 84 | 1004.4 |
| 20260509215704 | 60 | 274 | 10.0 | 21.0 | 0.00 | 0.03 | 0.00 | 87 | 1004.5 |
| 20260509215205 | 60 | 284 | 9.0 | 16.0 | 0.00 | 0.03 | 0.00 | 88 | 1004.5 |
| 20260509214703 | 60 | 290 | 8.0 | 15.0 | 0.00 | 0.03 | 0.00 | 89 | 1004.5 |
| 20260509213704 | 59 | 283 | 10.0 | 15.0 | 0.00 | 0.03 | 0.00 | 89 | 1004.5 |
| 20260509213204 | 59 | 274 | 9.0 | 16.0 | 0.00 | 0.03 | 0.00 | 89 | 1004.5 |
| 20260509212205 | 57 | 265 | 13.0 | 20.0 | 0.00 | 0.03 | 0.00 | 91 | 1004.4 |
| 20260509211704 | 58 | 277 | 9.0 | 15.0 | 0.00 | 0.03 | 0.00 | 92 | 1004.6 |
| 20260509211204 | 58 | 269 | 7.0 | 15.0 | 0.00 | 0.03 | 0.00 | 93 | 1004.5 |
| 20260509210704 | 57 | 290 | 8.0 | 14.0 | 0.00 | 0.03 | 0.00 | 94 | 1004.2 |
| 20260509210204 | 56 | 276 | 7.0 | 12.0 | 0.00 | 0.03 | 0.00 | 96 | 1004.4 |
| 20260509205204 | 56 | 281 | 7.0 | 12.0 | 0.00 | 0.03 | 0.00 | 97 | 1004.3 |
| 20260509204704 | 55 | 267 | 7.0 | 12.0 | 0.00 | 0.03 | 0.00 | 98 | 1004.3 |
| 20260509203704 | 54 | 222 | 2.0 | 6.0 | 0.00 | 0.03 | 0.00 | 98 | 1004.2 |
| 20260509203204 | 54 | 243 | 4.0 | 7.0 | 0.00 | 0.03 | 0.00 | 98 | 1004.3 |
| 20260509202204 | 53 | 290 | 5.0 | 10.0 | 0.00 | 0.03 | 0.00 | 98 | 1004.3 |
| 20260509201705 | 53 | 290 | 6.0 | 10.0 | 0.00 | 0.03 | 0.00 | 98 | 1004.2 |
| 20260509201204 | 53 | 288 | 5.0 | 8.0 | 0.00 | 0.03 | 0.00 | 98 | 1004.3 |
| 20260509200704 | 52 | 271 | 5.0 | 7.0 | 0.00 | 0.03 | 0.00 | 98 | 1004.1 |
| 20260509200205 | 52 | 242 | 2.0 | 7.0 | 0.00 | 0.03 | 0.00 | 98 | 1004.0 |
| 20260509195704 | 51 | 212 | 3.0 | 5.0 | 0.00 | 0.03 | 0.00 | 98 | 1004.3 |
| 20260509195204 | 51 | 262 | 2.0 | 3.0 | 0.00 | 0.03 | 0.00 | 98 | 1004.1 |
| 20260509194704 | 50 | 285 | 1.0 | 3.0 | 0.00 | 0.03 | 0.00 | 98 | 1004.0 |
| 20260509194205 | 50 | 326 | 1.0 | 2.0 | 0.00 | 0.03 | 0.00 | 98 | 1004.0 |
| 20260509193705 | 49 | 269 | 0.0 | 2.0 | 0.00 | 0.03 | 0.00 | 98 | 1003.9 |
| 20260509193204 | 49 | 236 | 3.0 | 3.0 | 0.00 | 0.03 | 0.00 | 98 | 1004.1 |
| 20260509192705 | 49 | 256 | 2.0 | 5.0 | 0.00 | 0.03 | 0.00 | 98 | 1003.8 |
| 20260509192204 | 49 | 288 | 3.0 | 5.0 | 0.00 | 0.03 | 0.00 | 98 | 1003.6 |
| 20260509191704 | 49 | 298 | 2.0 | 5.0 | 0.00 | 0.03 | 0.00 | 98 | 1003.9 |
| 20260509191204 | 48 | 324 | 2.0 | 3.0 | 0.00 | 0.03 | 0.00 | 98 | 1003.7 |
| 20260509190704 | 49 | 359 | 1.0 | 2.0 | 0.00 | 0.03 | 0.00 | 98 | 1003.7 |
| 20260509185704 | 49 | 284 | 2.0 | 3.0 | 0.00 | 0.03 | 0.00 | 98 | 1003.6 |
| 20260509185204 | 49 | 332 | 1.0 | 3.0 | 0.00 | 0.03 | 0.00 | 98 | 1003.7 |
| 20260509184704 | 49 | 330 | 2.0 | 3.0 | 0.00 | 0.03 | 0.00 | 98 | 1003.5 |
| 20260509184205 | 50 | 321 | 2.0 | 3.0 | 0.00 | 0.03 | 0.00 | 98 | 1003.5 |
| 20260509183703 | 50 | 271 | 2.0 | 5.0 | 0.00 | 0.03 | 0.00 | 98 | 1003.6 |
| 20260509183204 | 50 | 263 | 3.0 | 5.0 | 0.00 | 0.03 | 0.00 | 99 | 1003.6 |
| 20260509182704 | 49 | 265 | 3.0 | 7.0 | 0.00 | 0.03 | 0.00 | 98 | 1003.7 |
| 20260509182204 | 49 | 270 | 6.0 | 8.0 | 0.00 | 0.03 | 0.00 | 99 | 1003.4 |
| 20260509181704 | 48 | 270 | 5.0 | 6.0 | 0.00 | 0.03 | 0.00 | 98 | 1003.5 |
| 20260509180704 | 48 | 261 | 3.0 | 6.0 | 0.00 | 0.03 | 0.00 | 98 | 1003.5 |
| 20260509175704 | 49 | 293 | 3.0 | 5.0 | 0.00 | 0.03 | 0.00 | 98 | 1003.6 |
| 20260509175204 | 49 | 312 | 3.0 | 5.0 | 0.00 | 0.03 | 0.00 | 98 | 1003.6 |
| 20260509174705 | 49 | 263 | 5.0 | 8.0 | 0.00 | 0.03 | 0.00 | 98 | 1003.6 |
| 20260509174205 | 48 | 243 | 2.0 | 3.0 | 0.00 | 0.03 | 0.00 | 98 | 1003.6 |
| 20260509173703 | 48 | 228 | 3.0 | 6.0 | 0.00 | 0.03 | 0.00 | 98 | 1003.5 |
| 20260509173204 | 46 | 220 | 2.0 | 5.0 | 0.00 | 0.03 | 0.00 | 98 | 1003.6 |
| 20260509172204 | 46 | 140 | 0.0 | 1.0 | 0.00 | 0.03 | 0.00 | 98 | 1003.3 |
| 20260509171704 | 46 | 42 | 1.0 | 1.0 | 0.00 | 0.03 | 0.00 | 98 | 1003.4 |
| 20260509171204 | 46 | 306 | 0.0 | 0.0 | 0.00 | 0.03 | 0.00 | 98 | 1003.3 |
| 20260509170704 | 46 | 187 | 1.0 | 1.0 | 0.00 | 0.03 | 0.00 | 98 | 1003.4 |
| 20260509170204 | 46 | 125 | 0.0 | 1.0 | 0.00 | 0.03 | 0.00 | 98 | 1003.3 |
| 20260509164704 | 46 | 167 | 1.0 | 1.0 | 0.00 | 0.03 | 0.00 | 98 | 1003.2 |
| 20260509164204 | 47 | 9 | 1.0 | 2.0 | 0.00 | 0.03 | 0.00 | 98 | 1003.3 |
| 20260509163705 | 47 | 9 | 1.0 | 2.0 | 0.00 | 0.03 | 0.00 | 98 | 1003.1 |
| 20260509163204 | 47 | 356 | 0.0 | 1.0 | 0.00 | 0.03 | 0.00 | 98 | 1003.3 |
| 20260509162704 | 47 | 324 | 0.0 | 1.0 | 0.00 | 0.03 | 0.00 | 98 | 1003.3 |
| 20260509162204 | 47 | 219 | 0.0 | 1.0 | 0.00 | 0.03 | 0.00 | 98 | 1003.3 |
| 20260509161704 | 48 | 216 | 0.0 | 1.0 | 0.00 | 0.03 | 0.00 | 98 | 1003.2 |
| 20260509161204 | 48 | 47 | 0.0 | 0.0 | 0.00 | 0.03 | 0.00 | 98 | 1003.3 |
| 20260509160704 | 48 | 295 | 0.0 | 1.0 | 0.00 | 0.03 | 0.00 | 98 | 1003.3 |
| 20260509160204 | 48 | 262 | 1.0 | 2.0 | 0.00 | 0.03 | 0.00 | 98 | 1003.2 |
| 20260509155704 | 48 | 198 | 1.0 | 2.0 | 0.00 | 0.03 | 0.00 | 98 | 1003.1 |
| 20260509155204 | 48 | 227 | 2.0 | 3.0 | 0.00 | 0.03 | 0.00 | 98 | 1003.4 |
| 20260509154705 | 47 | 208 | 3.0 | 3.0 | 0.00 | 0.03 | 0.00 | 98 | 1003.4 |
| 20260509154205 | 47 | 201 | 1.0 | 2.0 | 0.00 | 0.03 | 0.00 | 97 | 1003.2 |
| 20260509153704 | 47 | 242 | 1.0 | 2.0 | 0.00 | 0.03 | 0.00 | 97 | 1003.3 |
| 20260509153205 | 48 | 254 | 0.0 | 2.0 | 0.00 | 0.03 | 0.00 | 97 | 1003.5 |
| 20260509152704 | 48 | 265 | 1.0 | 3.0 | 0.00 | 0.03 | 0.00 | 97 | 1003.5 |
| 20260509151704 | 49 | 199 | 0.0 | 1.0 | 0.00 | 0.04 | 0.00 | 97 | 1003.7 |
| 20260509151204 | 49 | 136 | 0.0 | 1.0 | 0.00 | 0.04 | 0.00 | 97 | 1003.6 |
| 20260509150705 | 49 | 101 | 0.0 | 1.0 | 0.00 | 0.04 | 0.00 | 97 | 1003.7 |
| 20260509150204 | 49 | 187 | 0.0 | 2.0 | 0.00 | 0.04 | 0.00 | 97 | 1003.6 |
| 20260509145205 | 49 | 187 | 0.0 | 0.0 | 0.00 | 0.04 | 0.00 | 97 | 1003.8 |
| 20260509144705 | 49 | 179 | 0.0 | 1.0 | 0.00 | 0.04 | 0.00 | 97 | 1003.8 |
| 20260509144204 | 49 | 246 | 1.0 | 2.0 | 0.00 | 0.04 | 0.00 | 97 | 1003.5 |
| 20260509143705 | 49 | 246 | 2.0 | 3.0 | 0.00 | 0.04 | 0.00 | 97 | 1003.6 |
| 20260509142204 | 49 | 215 | 1.0 | 1.0 | 0.00 | 0.04 | 0.00 | 96 | 1003.7 |
| 20260509141704 | 50 | 253 | 0.0 | 2.0 | 0.00 | 0.04 | 0.00 | 96 | 1003.7 |
| 20260509141204 | 51 | 268 | 1.0 | 2.0 | 0.00 | 0.04 | 0.00 | 96 | 1003.7 |
| 20260509140705 | 51 | 57 | 1.0 | 2.0 | 0.00 | 0.05 | 0.00 | 96 | 1003.8 |
| 20260509140205 | 51 | 74 | 1.0 | 2.0 | 0.00 | 0.08 | 0.00 | 96 | 1003.8 |
| 20260509135704 | 52 | 112 | 0.0 | 2.0 | 0.00 | 0.08 | 0.00 | 96 | 1003.7 |
| 20260509134704 | 52 | 16 | 1.0 | 2.0 | 0.00 | 0.08 | 0.00 | 96 | 1004.0 |
| 20260509134204 | 52 | 56 | 2.0 | 2.0 | 0.00 | 0.08 | 0.00 | 96 | 1003.8 |
| 20260509133704 | 52 | 181 | 0.0 | 1.0 | 0.00 | 0.08 | 0.00 | 96 | 1003.9 |
| 20260509132706 | 53 | 289 | 1.0 | 2.0 | 0.00 | 0.08 | 0.00 | 96 | 1003.7 |
| 20260509132205 | 53 | 278 | 0.0 | 2.0 | 0.00 | 0.08 | 0.00 | 96 | 1003.8 |
| 20260509130704 | 54 | 250 | 3.0 | 5.0 | 0.00 | 0.09 | 0.00 | 96 | 1003.7 |
| 20260509125705 | 55 | 248 | 3.0 | 7.0 | 0.00 | 0.09 | 0.00 | 96 | 1003.8 |
| 20260509125204 | 55 | 253 | 5.0 | 7.0 | 0.00 | 0.09 | 0.00 | 96 | 1004.0 |
| 20260509124705 | 55 | 239 | 2.0 | 5.0 | 0.00 | 0.09 | 0.00 | 96 | 1003.9 |
| 20260509124204 | 55 | 237 | 2.0 | 3.0 | 0.00 | 0.09 | 0.00 | 96 | 1003.8 |
| 20260509123205 | 55 | 262 | 0.0 | 2.0 | 0.00 | 0.13 | 0.00 | 96 | 1003.8 |
| 20260509122704 | 56 | 257 | 1.0 | 5.0 | 0.00 | 0.13 | 0.00 | 96 | 1004.0 |
| 20260509122204 | 56 | 243 | 2.0 | 6.0 | 0.00 | 0.13 | 0.00 | 96 | 1004.0 |
| 20260509121705 | 56 | 267 | 3.0 | 9.0 | 0.00 | 0.13 | 0.00 | 96 | 1003.9 |
| 20260509121204 | 56 | 271 | 6.0 | 10.0 | 0.00 | 0.13 | 0.00 | 96 | 1004.1 |
| 20260509120705 | 56 | 277 | 6.0 | 13.0 | 0.00 | 0.13 | 0.00 | 96 | 1004.1 |
| 20260509120204 | 56 | 275 | 5.0 | 10.0 | 0.00 | 0.13 | 0.00 | 96 | 1004.1 |
| 20260509115705 | 56 | 268 | 5.0 | 9.0 | 0.00 | 0.13 | 0.13 | 96 | 1004.1 |
| 20260509115204 | 56 | 261 | 6.0 | 10.0 | 0.00 | 0.13 | 0.13 | 96 | 1004.3 |
| 20260509114705 | 56 | 251 | 6.0 | 12.0 | 0.00 | 0.13 | 0.13 | 96 | 1004.1 |
| 20260509114204 | 56 | 268 | 6.0 | 10.0 | 0.00 | 0.13 | 0.13 | 96 | 1004.2 |
| 20260509113705 | 56 | 270 | 5.0 | 12.0 | 0.00 | 0.13 | 0.13 | 96 | 1004.0 |
| 20260509113205 | 56 | 275 | 4.0 | 9.0 | 0.00 | 0.13 | 0.13 | 96 | 1004.3 |
| 20260509112705 | 56 | 281 | 3.0 | 7.0 | 0.00 | 0.13 | 0.13 | 96 | 1004.2 |
| 20260509112205 | 55 | 285 | 3.0 | 5.0 | 0.00 | 0.13 | 0.13 | 96 | 1004.0 |
| 20260509111204 | 55 | 248 | 2.0 | 3.0 | 0.00 | 0.13 | 0.13 | 95 | 1004.0 |
| 20260509110204 | 55 | 157 | 2.0 | 2.0 | 0.00 | 0.13 | 0.13 | 95 | 1003.8 |
| 20260509105704 | 55 | 141 | 1.0 | 2.0 | 0.00 | 0.13 | 0.13 | 94 | 1003.7 |
| 20260509105208 | 55 | 47 | 0.0 | 3.0 | 0.00 | 0.13 | 0.13 | 94 | 1004.1 |
| 20260509104704 | 55 | 224 | 2.0 | 3.0 | 0.00 | 0.13 | 0.13 | 94 | 1003.9 |
| 20260509104204 | 56 | 232 | 2.0 | 3.0 | 0.00 | 0.14 | 0.13 | 94 | 1004.0 |
| 20260509103204 | 56 | 283 | 3.0 | 6.0 | 0.00 | 0.15 | 0.13 | 95 | 1004.0 |
| 20260509102704 | 56 | 275 | 3.0 | 6.0 | 0.00 | 0.16 | 0.13 | 94 | 1004.2 |
| 20260509102204 | 56 | 254 | 3.0 | 5.0 | 0.00 | 0.16 | 0.13 | 95 | 1004.4 |
| 20260509101204 | 56 | 272 | 2.0 | 3.0 | 0.00 | 0.17 | 0.13 | 94 | 1004.4 |
| 20260509100704 | 56 | 259 | 2.0 | 3.0 | 0.00 | 0.18 | 0.13 | 94 | 1004.6 |
| 20260509100205 | 57 | 256 | 2.0 | 3.0 | 0.00 | 0.19 | 0.13 | 94 | 1004.2 |
| 20260509095204 | 57 | 264 | 1.0 | 3.0 | 0.00 | 0.21 | 0.13 | 94 | 1004.5 |
| 20260509094705 | 57 | 282 | 2.0 | 3.0 | 0.00 | 0.22 | 0.13 | 95 | 1004.6 |
| 20260509094204 | 57 | 1 | 2.0 | 5.0 | 0.00 | 0.22 | 0.13 | 95 | 1004.4 |
| 20260509093704 | 57 | 336 | 2.0 | 6.0 | 0.00 | 0.22 | 0.13 | 95 | 1004.5 |
| 20260509093205 | 57 | 20 | 2.0 | 5.0 | 0.00 | 0.22 | 0.13 | 95 | 1004.5 |
| 20260509092205 | 57 | 342 | 2.0 | 5.0 | 0.00 | 0.22 | 0.13 | 95 | 1004.3 |
| 20260509091204 | 57 | 299 | 1.0 | 2.0 | 0.00 | 0.22 | 0.13 | 94 | 1004.2 |
| 20260509090704 | 57 | 273 | 2.0 | 3.0 | 0.00 | 0.22 | 0.13 | 94 | 1004.3 |
| 20260509090204 | 58 | 288 | 2.0 | 3.0 | 0.00 | 0.22 | 0.13 | 94 | 1004.2 |
| 20260509085704 | 58 | 275 | 1.0 | 2.0 | 0.00 | 0.22 | 0.13 | 94 | 1004.3 |
| 20260509085204 | 58 | 264 | 1.0 | 2.0 | 0.00 | 0.22 | 0.13 | 94 | 1004.1 |
| 20260509084704 | 58 | 259 | 1.0 | 2.0 | 0.01 | 0.22 | 0.13 | 94 | 1004.2 |
| 20260509083704 | 57 | 278 | 1.0 | 2.0 | 0.01 | 0.22 | 0.13 | 94 | 1004.1 |
| 20260509081704 | 58 | 236 | 2.0 | 5.0 | 0.01 | 0.23 | 0.13 | 93 | 1004.2 |
| 20260509081204 | 58 | 241 | 3.0 | 5.0 | 0.01 | 0.23 | 0.13 | 93 | 1004.3 |
| 20260509080204 | 58 | 289 | 3.0 | 7.0 | 0.01 | 0.23 | 0.13 | 93 | 1004.1 |
| 20260509075704 | 58 | 279 | 4.0 | 7.0 | 0.00 | 0.22 | 0.13 | 93 | 1004.3 |
| 20260509075204 | 58 | 299 | 4.0 | 8.0 | 0.00 | 0.23 | 0.13 | 93 | 1004.1 |
| 20260509074704 | 58 | 274 | 6.0 | 9.0 | 0.00 | 0.23 | 0.12 | 93 | 1004.2 |
| 20260509073704 | 58 | 283 | 3.0 | 6.0 | 0.00 | 0.23 | 0.12 | 93 | 1004.2 |
| 20260509073204 | 58 | 295 | 3.0 | 7.0 | 0.00 | 0.23 | 0.12 | 92 | 1004.2 |
| 20260509072704 | 58 | 274 | 3.0 | 7.0 | 0.00 | 0.23 | 0.12 | 92 | 1004.1 |
| 20260509072204 | 58 | 277 | 4.0 | 7.0 | 0.00 | 0.23 | 0.12 | 92 | 1004.1 |
| 20260509071704 | 58 | 263 | 6.0 | 8.0 | 0.00 | 0.24 | 0.12 | 93 | 1004.1 |
| 20260509071204 | 58 | 265 | 6.0 | 9.0 | 0.00 | 0.24 | 0.12 | 92 | 1004.2 |
| 20260509070704 | 58 | 219 | 5.0 | 7.0 | 0.00 | 0.24 | 0.12 | 91 | 1004.0 |
| 20260509070205 | 59 | 218 | 5.0 | 7.0 | 0.00 | 0.24 | 0.12 | 91 | 1004.0 |
| 20260509065705 | 58 | 277 | 2.0 | 3.0 | 0.00 | 0.24 | 0.12 | 92 | 1003.9 |
| 20260509065204 | 58 | 324 | 2.0 | 5.0 | 0.00 | 0.24 | 0.12 | 92 | 1004.0 |
| 20260509064704 | 57 | 15 | 1.0 | 5.0 | 0.00 | 0.24 | 0.12 | 92 | 1004.2 |
| 20260509064204 | 57 | 224 | 1.0 | 2.0 | 0.00 | 0.24 | 0.12 | 91 | 1003.8 |
| 20260509063704 | 58 | 238 | 2.0 | 2.0 | 0.00 | 0.24 | 0.12 | 90 | 1003.8 |
| 20260509063204 | 58 | 179 | 1.0 | 2.0 | 0.00 | 0.24 | 0.12 | 91 | 1004.0 |
| 20260509062704 | 58 | 255 | 0.0 | 0.0 | 0.00 | 0.24 | 0.12 | 92 | 1004.1 |
| 20260509062204 | 57 | 315 | 0.0 | 1.0 | 0.00 | 0.24 | 0.12 | 91 | 1004.0 |
| 20260509061705 | 57 | 154 | 0.0 | 1.0 | 0.00 | 0.24 | 0.12 | 91 | 1003.9 |
| 20260509060705 | 57 | 30 | 0.0 | 1.0 | 0.00 | 0.24 | 0.12 | 90 | 1003.8 |
| 20260509060204 | 57 | 298 | 0.0 | 3.0 | 0.00 | 0.24 | 0.12 | 90 | 1003.7 |
| 20260509055704 | 58 | 269 | 1.0 | 3.0 | 0.00 | 0.24 | 0.12 | 89 | 1003.6 |
| 20260509055204 | 58 | 288 | 2.0 | 5.0 | 0.00 | 0.24 | 0.12 | 89 | 1003.6 |
| 20260509054704 | 58 | 292 | 3.0 | 6.0 | 0.00 | 0.24 | 0.12 | 88 | 1003.7 |
| 20260509054204 | 58 | 298 | 5.0 | 7.0 | 0.00 | 0.24 | 0.12 | 87 | 1003.8 |
| 20260509053704 | 59 | 296 | 4.0 | 6.0 | 0.00 | 0.24 | 0.12 | 86 | 1003.5 |
| 20260509052704 | 60 | 299 | 2.0 | 5.0 | 0.00 | 0.24 | 0.12 | 83 | 1003.5 |
| 20260509051704 | 61 | 265 | 4.0 | 7.0 | 0.00 | 0.24 | 0.12 | 82 | 1003.7 |
| 20260509050204 | 62 | 280 | 5.0 | 10.0 | 0.00 | 0.24 | 0.12 | 85 | 1003.9 |
| 20260509045704 | 62 | 294 | 2.0 | 5.0 | 0.00 | 0.24 | 0.12 | 84 | 1004.0 |
| 20260509045204 | 62 | 299 | 3.0 | 5.0 | 0.00 | 0.24 | 0.12 | 83 | 1004.0 |
| 20260509044704 | 62 | 311 | 3.0 | 6.0 | 0.00 | 0.24 | 0.12 | 83 | 1003.9 |
| 20260509044204 | 62 | 306 | 4.0 | 7.0 | 0.00 | 0.24 | 0.12 | 82 | 1004.3 |
| 20260509043704 | 62 | 285 | 5.0 | 8.0 | 0.00 | 0.24 | 0.12 | 82 | 1004.2 |
| 20260509042704 | 62 | 277 | 5.0 | 9.0 | 0.00 | 0.24 | 0.12 | 80 | 1004.1 |
| 20260509042205 | 62 | 270 | 4.0 | 7.0 | 0.00 | 0.24 | 0.12 | 79 | 1004.1 |
| 20260509041704 | 63 | 274 | 4.0 | 10.0 | 0.00 | 0.24 | 0.12 | 77 | 1004.2 |
| 20260509041205 | 63 | 281 | 6.0 | 12.0 | 0.00 | 0.24 | 0.12 | 74 | 1004.1 |
| 20260509040704 | 64 | 281 | 6.0 | 13.0 | 0.00 | 0.24 | 0.12 | 74 | 1004.1 |
| 20260509040204 | 64 | 277 | 9.0 | 16.0 | 0.00 | 0.24 | 0.12 | 74 | 1004.3 |
| 20260509035704 | 65 | 287 | 5.0 | 13.0 | 0.00 | 0.24 | 0.12 | 73 | 1004.2 |
| 20260509035204 | 65 | 279 | 9.0 | 17.0 | 0.00 | 0.24 | 0.12 | 70 | 1004.2 |
| 20260509034704 | 66 | 288 | 9.0 | 14.0 | 0.00 | 0.24 | 0.12 | 72 | 1004.0 |
| 20260509034204 | 66 | 283 | 10.0 | 15.0 | 0.00 | 0.24 | 0.12 | 71 | 1004.1 |
| 20260509033203 | 67 | 283 | 10.0 | 18.0 | 0.00 | 0.24 | 0.12 | 72 | 1004.1 |
| 20260509032704 | 67 | 283 | 8.0 | 14.0 | 0.00 | 0.24 | 0.12 | 77 | 1003.8 |
| 20260509032205 | 66 | 294 | 7.0 | 13.0 | 0.00 | 0.24 | 0.12 | 78 | 1003.7 |
| 20260509031704 | 65 | 300 | 7.0 | 14.0 | 0.00 | 0.24 | 0.12 | 80 | 1004.1 |
| 20260509030704 | 65 | 279 | 9.0 | 15.0 | 0.00 | 0.24 | 0.12 | 79 | 1004.3 |
| 20260509030204 | 66 | 286 | 9.0 | 13.0 | 0.00 | 0.24 | 0.12 | 78 | 1004.1 |
| 20260509025704 | 65 | 279 | 8.0 | 13.0 | 0.00 | 0.24 | 0.12 | 78 | 1004.1 |
| 20260509025205 | 65 | 287 | 7.0 | 12.0 | 0.00 | 0.24 | 0.12 | 77 | 1004.3 |
| 20260509024704 | 66 | 292 | 9.0 | 13.0 | 0.00 | 0.24 | 0.12 | 76 | 1004.3 |
| 20260509023704 | 67 | 293 | 11.0 | 16.0 | 0.00 | 0.24 | 0.12 | 74 | 1004.2 |
| 20260509023204 | 68 | 299 | 13.0 | 20.0 | 0.00 | 0.24 | 0.12 | 74 | 1004.1 |
| 20260509022704 | 68 | 297 | 10.0 | 16.0 | 0.00 | 0.24 | 0.12 | 73 | 1004.3 |
| 20260509022204 | 68 | 285 | 9.0 | 18.0 | 0.00 | 0.24 | 0.12 | 75 | 1004.2 |
| 20260509021703 | 68 | 292 | 9.0 | 14.0 | 0.00 | 0.24 | 0.12 | 75 | 1004.2 |
| 20260509021204 | 68 | 283 | 10.0 | 16.0 | 0.00 | 0.24 | 0.12 | 75 | 1004.3 |
| 20260509020704 | 67 | 292 | 8.0 | 18.0 | 0.00 | 0.24 | 0.12 | 75 | 1004.1 |
| 20260509015204 | 67 | 314 | 10.0 | 15.0 | 0.00 | 0.24 | 0.12 | 76 | 1004.4 |
| 20260509014203 | 67 | 296 | 9.0 | 15.0 | 0.00 | 0.24 | 0.12 | 78 | 1004.5 |
| 20260509013704 | 67 | 309 | 12.0 | 20.0 | 0.00 | 0.24 | 0.12 | 78 | 1004.5 |
| 20260509012705 | 67 | 321 | 7.0 | 21.0 | 0.00 | 0.24 | 0.12 | 78 | 1004.5 |
| 20260509012204 | 67 | 316 | 12.0 | 18.0 | 0.00 | 0.24 | 0.12 | 78 | 1004.4 |
| 20260509011204 | 67 | 278 | 10.0 | 17.0 | 0.00 | 0.24 | 0.12 | 77 | 1004.6 |
| 20260509010704 | 67 | 290 | 9.0 | 17.0 | 0.00 | 0.24 | 0.12 | 77 | 1004.8 |
| 20260509010204 | 67 | 290 | 11.0 | 15.0 | 0.00 | 0.24 | 0.12 | 78 | 1004.7 |
| 20260509005704 | 67 | 290 | 10.0 | 17.0 | 0.00 | 0.24 | 0.12 | 77 | 1004.8 |
| 20260509005204 | 66 | 303 | 11.0 | 16.0 | 0.00 | 0.24 | 0.12 | 78 | 1004.9 |
| 20260509004704 | 66 | 280 | 11.0 | 21.0 | 0.00 | 0.24 | 0.12 | 77 | 1005.2 |
| 20260509003704 | 66 | 282 | 10.0 | 16.0 | 0.01 | 0.24 | 0.12 | 78 | 1005.2 |
| 20260509003205 | 66 | 270 | 10.0 | 15.0 | 0.01 | 0.24 | 0.12 | 81 | 1005.4 |
| 20260509002704 | 66 | 263 | 9.0 | 14.0 | 0.01 | 0.24 | 0.12 | 81 | 1005.5 |
| 20260509002204 | 65 | 278 | 7.0 | 14.0 | 0.01 | 0.24 | 0.12 | 86 | 1005.4 |
| 20260509001704 | 64 | 277 | 10.0 | 15.0 | 0.01 | 0.24 | 0.12 | 88 | 1005.6 |
| 20260509001205 | 63 | 268 | 8.0 | 13.0 | 0.01 | 0.24 | 0.12 | 88 | 1005.9 |
| 20260509000703 | 63 | 273 | 5.0 | 9.0 | 0.01 | 0.24 | 0.12 | 88 | 1005.9 |
| 20260509000204 | 63 | 271 | 5.0 | 13.0 | 0.01 | 0.24 | 0.12 | 86 | 1005.9 |
| 20260508235704 | 64 | 254 | 7.0 | 17.0 | 0.00 | 0.24 | 0.12 | 84 | 1006.1 |
| 20260508235204 | 63 | 283 | 7.0 | 15.0 | 0.00 | 0.24 | 0.12 | 92 | 1006.4 |
| 20260508234705 | 62 | 288 | 9.0 | 15.0 | 0.00 | 0.24 | 0.12 | 89 | 1006.1 |
| 20260508234204 | 63 | 319 | 12.0 | 16.0 | 0.00 | 0.23 | 0.11 | 87 | 1006.1 |
| 20260508233704 | 64 | 311 | 10.0 | 16.0 | 0.00 | 0.23 | 0.11 | 85 | 1006.1 |
| 20260508232704 | 65 | 319 | 7.0 | 12.0 | 0.00 | 0.23 | 0.11 | 84 | 1006.2 |
| 20260508232204 | 66 | 313 | 6.0 | 12.0 | 0.00 | 0.23 | 0.11 | 85 | 1006.2 |
| 20260508231704 | 66 | 300 | 7.0 | 12.0 | 0.01 | 0.23 | 0.11 | 83 | 1006.4 |
| 20260508231205 | 65 | 299 | 6.0 | 12.0 | 0.01 | 0.23 | 0.11 | 84 | 1006.5 |
| 20260508230204 | 63 | 305 | 5.0 | 8.0 | 0.01 | 0.23 | 0.11 | 89 | 1006.5 |
| 20260508225204 | 62 | 297 | 5.0 | 10.0 | 0.01 | 0.23 | 0.11 | 86 | 1006.6 |
| 20260508224704 | 63 | 294 | 6.0 | 9.0 | 0.01 | 0.23 | 0.11 | 86 | 1006.8 |
| 20260508224204 | 63 | 305 | 7.0 | 10.0 | 0.01 | 0.23 | 0.11 | 88 | 1006.8 |
| 20260508222704 | 63 | 296 | 7.0 | 13.0 | 0.01 | 0.23 | 0.11 | 87 | 1006.8 |